2018-104B (43850 NORAD) Tracking and Keplerian Element Data

This shows tracking and keplerian element data for the satellite.

Feedback or suggestion? Click here.




ElementValue
Catalog43850
Name2018-104B
Epoch Orbit442
Epoch Day14.44805598
Epoch Year2019
RAAN159.0325
Inclination85.0297
Eccentricity0.0015401
Argument of Perigee171.785
Mean Anonmoly188.3796
Mean Motion15.20934282
Decay Rate4.1E-07
L11 43850U 18104B 19014.44805598 .00000041 00000-0 00000+0 0 9996
L22 43850 85.0297 159.0325 0015401 171.7850 188.3796 15.20934282 4426

Live tracking and technical data element details for 2018-104B (NORAD 43850). 2018-104B can be tracked NOW for your location showing map with azimuth and elevation plus other details from your city location.

Track the satellite on the map from your city or location and see movement details for azimuth, elevation, latitude, longitude, range, height, and movement on the map or in text.







IsCatalogInMostPopularTable: catalog: 43850, numindb: 20
Update: records affected: 1



GetName: 43850 2018-104B

Hit Count: updated at: Thu, 17 Jan 2019 15:24:38 GMT